Hourly Weather Roundup
Issued by NWS

Home | Current Version | Previous Version | Text Only | Print | Product List | Glossary On
Versions: 1 2 3 4 5 6 7 8 9 10 11 12 13 14 15 16 17 18 19 20 21 22 23 24 25 26 27 28 29 30 31 32 33 34 35 36 37 38 39 40 41 42 43 44 45 46 47 48 49 50
000
NZUS43 KILX 050610
HWRCRS

CRS HOURLY WEATHER ROUNDUP
NATIONAL WEATHER SERVICE, LINCOLN IL
100 AM CDT SAT SEP 05 2015


CITY           SKY/WX    TMP DP  RH WIND       PRES   REMARKS
CHAMPAIGN      CLEAR     67  64  90 N3        30.05S
LAWRENCEVILLE  CLOUDY    74  70  87 CALM      30.04F
PEORIA         CLEAR     78  67  68 S8        30.04S HX  80
SPRINGFIELD    CLEAR     76  67  73 SE5       30.05F
$$


CITY           SKY/WX    TMP DP  RH WIND       PRES   REMARKS
BLOOMINGTON    CLEAR     71  66  84 S8        30.06F
DECATUR        CLEAR     72  61  68 E6        30.05R
EFFINGHAM      CLEAR     69  64  83 CALM      30.06F
FLORA          CLOUDY    73  67  80 CALM      30.06F
GALESBURG      CLEAR     74  67  80 S3        30.03S
JACKSONVILLE   CLEAR     75  70  84 S5        30.03F
LACON          PTCLDY    75  65  71 S5        30.03R
LINCOLN        CLEAR     74  66  75 S6        30.04F
LITCHFIELD     CLEAR     74  68  82 SE7       30.06S

CITY           SKY/WX    TMP DP  RH WIND       PRES   REMARKS
MACOMB         CLEAR     74  69  82 S3        30.05R
MATTOON        PTCLDY    71  67  87 SW5       30.03F
MOLINE         FAIR      74  69  85 CALM      30.01S
OLNEY          PTCLDY    70  66  88 CALM      30.05F
PARIS          MOCLDY    70  68  96 SE3       30.07R
PONTIAC        CLEAR     73  68  86 CALM      30.05S
QUINCY         CLEAR     78  69  73 S7        30.03S HX  80
RANTOUL        CLEAR     71  66  84 CALM      30.05S
ROBINSON       CLOUDY    71  66  84 NE8       30.06S
TAYLORVILLE    CLEAR     72  64  78 SE5       30.06S
TERRE HAUTE    MOCLDY    71  65  81 E7        30.06F
$$


CITY           SKY/WX    TMP DP  RH WIND       PRES   REMARKS
BURLINGTON     CLEAR     75  71  87 S6        30.02R
CHICAGO        PTCLDY    72  67  84 E3        30.04F
DES MOINES     CLOUDY    79  69  71 S7        29.96S HX  81
EVANSVILLE     MOCLDY    74  70  87 MISG      30.05F FOG
INDIANAPOLIS   PTCLDY    70  64  81 CALM      30.08F
KANSAS CITY    CLEAR     74  68  81 SE7       29.99R
MILWAUKEE      FOG       66  65  96 CALM      30.06S VSB 1/2
ST LOUIS       CLEAR     79  68  69 SE5       30.05S HX  81
$$




USA.gov is the U.S. government's official web portal to all federal, state and local government web resources and services.